Albertville, AL

9:48 AM CDT on October 20, 2017 (GMT -0500)
Albertville

Weather History for K8A0 - October, 2012

Change the Weather History Date:

Friday, October 5, 2012

  Actual Average (KGAD) Record (KGAD)
Temperature  
Mean Temperature 68 °F -  
Max Temperature 80 °F 74 °F 93 °F (1931)
Min Temperature 55 °F 52 °F 35 °F (2014)
Cooling Degree Days 2    
Growing Degree Days 18 (Base 50)    
Moisture  
Dew Point 58 °F    
Average Humidity 76    
Maximum Humidity 100    
Minimum Humidity 39    
Precipitation  
Precipitation 0.00 in - - ()
Sea Level Pressure  
Sea Level Pressure 30.13 in    
Wind  
Wind Speed 3 mph (SSE)    
Max Wind Speed 8 mph    
Max Gust Speed -    
Visibility 9 miles    
Events      
Averages and records for this station are not official NWS values.
T = Trace of Precipitation, MM = Missing Value Source: NWS Daily Summary

Daily Weather History Graph

Daily Weather History Graph

Search for Another Location

Airport or City:

Trip Planner

Search our weather history database for the weather conditions in past years. The results will help you decide how hot, cold, wet, or windy it might be!

Date:

Astronomy

Oct. 05, 2012 Rise Set
Actual Time 6:42 AM CDT 6:23 PM CDT
Civil Twilight 6:17 AM CDT 6:48 PM CDT
Nautical Twilight 5:48 AM CDT 7:17 PM CDT
Astronomical Twilight 5:19 AM CDT 7:46 PM CDT
Moon 9:58 PM CDT (10/5) 11:37 AM CDT (10/5)
Length of Visible Light 12h 30m
Length of Day
11h 40m
Waning Gibbous, 74% of the Moon is Illuminated
Oct 5
Waning Gibbous
Oct 8
Last Quarter
Oct 15
New
Oct 21
First Quarter
Oct 29
Full

Hourly Weather History & Observations

Time (CDT) Temp. Heat Index Dew Point Humidity Pressure Visibility Wind Dir Wind Speed Gust Speed Precip Events Conditions
12:15 AM 60.8 °F - 60.8 °F 100% 30.22 in 10.0 mi SE 3.5 mph - N/A   Unknown
12:35 AM 59.0 °F - 59.0 °F 100% 30.22 in 10.0 mi Calm Calm - N/A   Unknown
12:55 AM 59.0 °F - 59.0 °F 100% 30.22 in 10.0 mi East 3.5 mph - N/A   Unknown
1:15 AM 59.0 °F - 59.0 °F 100% 30.21 in 10.0 mi East 3.5 mph - N/A   Unknown
1:55 AM 59.0 °F - 59.0 °F 100% 30.21 in 10.0 mi Calm Calm - N/A   Unknown
2:15 AM 59.0 °F - 59.0 °F 100% 30.20 in 7.0 mi Calm Calm - N/A   Unknown
2:35 AM 57.2 °F - 57.2 °F 100% 30.20 in 7.0 mi NE 3.5 mph - N/A   Unknown
2:55 AM 57.2 °F - 57.2 °F 100% 30.20 in 7.0 mi ENE 3.5 mph - N/A   Unknown
3:15 AM 57.2 °F - 57.2 °F 100% 30.20 in 7.0 mi ENE 4.6 mph - N/A   Unknown
3:35 AM 57.2 °F - 57.2 °F 100% 30.20 in 7.0 mi NE 3.5 mph - N/A   Unknown
3:55 AM 55.4 °F - 55.4 °F 100% 30.19 in 7.0 mi NNE 4.6 mph - N/A   Unknown
4:15 AM 57.2 °F - 57.2 °F 100% 30.20 in 7.0 mi NNE 4.6 mph - N/A   Unknown
4:35 AM 55.4 °F - 55.4 °F 100% 30.20 in 7.0 mi NE 4.6 mph - N/A   Unknown
5:35 AM 55.4 °F - 55.4 °F 100% 30.20 in 5.0 mi NE 3.5 mph - N/A   Mist
6:35 AM 55.4 °F - 55.4 °F 100% 30.20 in 5.0 mi NE 3.5 mph - N/A   Mist
6:55 AM 55.4 °F - 55.4 °F 100% 30.20 in 3.0 mi NE 3.5 mph - N/A   Mist
7:15 AM 55.4 °F - 55.4 °F 100% 30.21 in 4.0 mi Calm Calm - N/A   Mist
7:35 AM 57.2 °F - 57.2 °F 100% 30.21 in 7.0 mi NE 3.5 mph - N/A   Unknown
7:55 AM 59.0 °F - 59.0 °F 100% 30.20 in 7.0 mi Calm Calm - N/A   Unknown
8:15 AM 60.8 °F - 60.8 °F 100% 30.20 in 10.0 mi Calm Calm - N/A   Unknown
8:35 AM 62.6 °F - 62.6 °F 100% 30.20 in 10.0 mi Calm Calm - N/A   Unknown
8:55 AM 66.2 °F - 64.4 °F 94% 30.20 in 10.0 mi Calm Calm - N/A   Unknown
9:15 AM 68.0 °F - 60.8 °F 78% 30.20 in 10.0 mi Calm Calm - N/A   Unknown
10:15 AM 73.4 °F - 59.0 °F 61% 30.19 in 10.0 mi Calm Calm - N/A   Unknown
10:35 AM 73.4 °F - 57.2 °F 57% 30.18 in 10.0 mi Calm Calm - N/A   Unknown
10:55 AM 75.2 °F - 55.4 °F 50% 30.18 in 10.0 mi Calm Calm - N/A   Unknown
11:15 AM 77.0 °F - 55.4 °F 47% 30.18 in 10.0 mi SSW 3.5 mph - N/A   Unknown
11:35 AM 75.2 °F - 55.4 °F 50% 30.17 in 10.0 mi SSE 3.5 mph - N/A   Unknown
11:55 AM 77.0 °F - 55.4 °F 47% 30.16 in 10.0 mi SW 3.5 mph - N/A   Unknown
12:15 PM 77.0 °F - 55.4 °F 47% 30.15 in 10.0 mi Calm Calm - N/A   Unknown
12:35 PM 78.8 °F - 53.6 °F 42% 30.14 in 10.0 mi Calm Calm - N/A   Unknown
12:55 PM 77.0 °F - 55.4 °F 47% 30.13 in 10.0 mi West 4.6 mph - N/A   Unknown
1:15 PM 78.8 °F - 53.6 °F 42% 30.12 in 10.0 mi Calm Calm - N/A   Unknown
1:35 PM 77.0 °F - 55.4 °F 47% 30.11 in 10.0 mi SE 4.6 mph - N/A   Unknown
1:55 PM 78.8 °F - 53.6 °F 42% 30.10 in 10.0 mi South 5.8 mph - N/A   Unknown
2:15 PM 80.6 °F 80.3 °F 53.6 °F 39% 30.09 in 10.0 mi SW 4.6 mph - N/A   Unknown
2:35 PM 78.8 °F - 53.6 °F 42% 30.08 in 10.0 mi SW 3.5 mph - N/A   Unknown
3:15 PM 78.8 °F - 55.4 °F 44% 30.07 in 10.0 mi SSW 5.8 mph - N/A   Unknown
3:55 PM 78.8 °F - 55.4 °F 44% 30.06 in 10.0 mi West 3.5 mph - N/A   Unknown
4:15 PM 78.8 °F - 53.6 °F 42% 30.05 in 10.0 mi SSW 5.8 mph - N/A   Unknown
4:35 PM 78.8 °F - 53.6 °F 42% 30.04 in 10.0 mi SSW 8.1 mph - N/A   Unknown
4:55 PM 78.8 °F - 53.6 °F 42% 30.03 in 10.0 mi SW 3.5 mph - N/A   Unknown
5:15 PM 78.8 °F - 55.4 °F 44% 30.03 in 10.0 mi SW 4.6 mph - N/A   Unknown
5:35 PM 77.0 °F - 55.4 °F 47% 30.04 in 10.0 mi SW 5.8 mph - N/A   Unknown
5:55 PM 75.2 °F - 57.2 °F 53% 30.03 in 10.0 mi SW 3.5 mph - N/A   Unknown
6:15 PM 73.4 °F - 59.0 °F 61% 30.04 in 10.0 mi Calm Calm - N/A   Unknown
6:35 PM 73.4 °F - 57.2 °F 57% 30.04 in 10.0 mi Calm Calm - N/A   Unknown
6:55 PM 69.8 °F - 59.0 °F 68% 30.03 in 10.0 mi SSE 4.6 mph - N/A   Unknown
7:15 PM 69.8 °F - 59.0 °F 68% 30.03 in 10.0 mi SSE 4.6 mph - N/A   Unknown
7:55 PM 68.0 °F - 59.0 °F 73% 30.03 in 10.0 mi South 5.8 mph - N/A   Unknown
8:15 PM 68.0 °F - 59.0 °F 73% 30.02 in 10.0 mi SSE 5.8 mph - N/A   Unknown
8:35 PM 64.4 °F - 60.8 °F 88% 30.02 in 10.0 mi South 4.6 mph - N/A   Unknown
8:55 PM 64.4 °F - 59.0 °F 83% 30.04 in 10.0 mi Calm Calm - N/A   Unknown
9:15 PM 64.4 °F - 59.0 °F 83% 30.05 in 10.0 mi Calm Calm - N/A   Unknown
9:35 PM 62.6 °F - 62.6 °F 100% 30.06 in 10.0 mi Calm Calm - N/A   Unknown
9:55 PM 64.4 °F - 59.0 °F 83% 30.07 in 10.0 mi Calm Calm - N/A   Unknown
10:15 PM 62.6 °F - 60.8 °F 94% 30.07 in 10.0 mi Calm Calm - N/A   Unknown
10:35 PM 62.6 °F - 60.8 °F 94% 30.06 in 10.0 mi South 4.6 mph - N/A   Unknown
10:55 PM 62.6 °F - 59.0 °F 88% 30.07 in 10.0 mi Calm Calm - N/A   Unknown
11:15 PM 60.8 °F - 60.8 °F 100% 30.07 in 10.0 mi Calm Calm - N/A   Unknown
11:35 PM 62.6 °F - 62.6 °F 100% 30.07 in 10.0 mi Calm Calm - N/A   Unknown
11:55 PM 60.8 °F - 60.8 °F 100% 30.06 in 10.0 mi Calm Calm - N/A   Unknown